Location: St Paul
(33.9360°N, 83.4200°W)
Time: 22:13:21
(UTC-05:00)

DELTA 2 R/B (1) - Pass Details

Date: 06 October 2017
Orbit: 791 x 802 km, 39.6° (Epoch: 17 December)

Event Time Altitude Azimuth Distance (km) Brightness Sun altitude
Rises 21:29:02 0° 248° (WSW) 3,290 7.5 -29.3°
Reaches altitude 10° 21:31:30 10° 249° (WSW) 2,363 6.7 -29.8°
Enters shadow 21:35:57 58° 257° (WSW) 928 4.0 -30.7°
